Date,TemperatureHighF,TemperatureAvgF,TemperatureLowF,DewpointHighF,DewpointAvgF,DewpointLowF,HumidityHigh,HumidityAvg,HumidityLow,PressureMaxIn,PressureMinIn,WindSpeedMaxMPH,WindSpeedAvgMPH,GustSpeedMaxMPH,PrecipitationSumIn
2013-3-1,82,65,50,24,14,7,25,14,6,30.31,30.18,10,0,13,0.00
2013-3-2,82,67,56,28,15,7,20,14,6,30.25,30.09,15,1,17,0.00
2013-3-3,71,61,50,34,22,12,55,24,13,30.12,29.98,16,1,20,0.00
2013-3-4,67,53,43,42,39,34,80,60,33,30.09,30.00,10,0,14,0.00
2013-3-5,69,54,43,46,41,34,87,63,34,30.08,30.00,20,2,20,0.01
2013-3-6,61,51,45,44,39,35,88,65,40,30.10,29.98,11,0,13,0.01
2013-3-7,53,47,41,47,40,34,86,78,65,30.00,29.84,16,0,16,0.08
2013-3-8,46,42,39,40,36,34,85,80,65,30.00,29.75,17,1,21,0.86
2013-3-9,55,47,42,42,39,37,86,74,52,30.17,29.98,6,0,10,0.07
2013-3-10,71,55,40,38,30,16,81,45,13,30.22,30.12,11,0,14,0.00
2013-3-11,75,61,48,35,24,12,41,27,10,30.17,30.04,9,0,10,0.00
2013-3-12,82,66,51,35,28,19,42,26,10,30.12,30.02,11,0,16,0.00
2013-3-13,87,71,59,37,27,18,30,20,8,30.14,30.05,12,1,14,0.00
2013-3-14,90,73,61,41,29,21,30,20,9,30.12,30.03,17,0,17,0.00
2013-3-15,85,70,60,43,29,19,39,23,11,30.07,29.95,16,1,22,0.00
2013-3-16,79,64,53,46,30,19,70,31,12,29.97,29.87,13,0,16,0.00
2013-3-17,75,58,44,47,42,32,87,60,22,29.98,29.92,10,0,13,0.00
2013-3-18,69,55,44,47,44,34,89,68,31,30.06,29.97,7,0,12,0.00
2013-3-19,74,58,45,49,44,39,88,64,30,30.09,30.02,9,0,13,0.00
2013-3-20,74,61,50,46,41,34,78,50,23,30.09,29.97,10,0,13,0.00
2013-3-21,73,58,48,46,42,33,79,57,24,29.98,29.81,16,1,20,0.00
2013-3-22,75,57,46,47,43,32,88,64,21,29.92,29.80,16,0,18,0.00
2013-3-23,76,58,44,44,34,21,81,46,14,30.01,29.90,12,1,16,0.00
2013-3-24,78,63,50,36,29,18,45,30,11,30.01,29.89,12,0,13,0.00
2013-3-25,81,66,54,37,29,15,46,28,9,29.98,29.90,12,0,18,0.00
2013-3-26,75,62,51,38,27,7,48,29,11,29.96,29.89,16,1,20,0.00
2013-3-27,72,58,48,42,35,22,62,43,27,30.03,29.92,11,1,20,0.00
2013-3-28,78,61,48,44,38,27,68,46,16,30.07,30.00,15,0,17,0.00
2013-3-29,81,65,52,48,38,28,70,40,16,30.12,30.03,14,1,20,0.00
2013-3-30,78,64,53,50,42,33,78,49,23,30.12,30.02,11,0,20,0.00
2013-3-31,70,57,46,48,40,30,75,55,35,30.10,30.01,23,2,26,0.00